Location: Friaudour
(46.0460°N, 1.2873°E)
Time: 20:40:43
(UTC+00:00)

Cosmos 1733 Rocket - Pass Details

Date: 14 July 2020
Orbit: 604 x 627 km, 82.5° (Epoch: 14 August)

Event Time Altitude Azimuth Distance (km) Brightness Sun altitude
Exits shadow 03:06:39 14° 227° (SW) 1,687 4.6 -10.3°
Maximum altitude 03:09:47 33° 286° (WNW) 1,033 4.0 -10.0°
Drops below altitude 10° 03:13:43 10° 351° (N) 1,963 6.2 -9.5°
Sets 03:16:08 0° 1° (N) 2,873 7.2 -9.2°
